MIDAS 5 DEB, 274

Orbit data source: Space-Track

MIDAS 5 DEB, 274 is space debris in LEO originally from a launch on Mon, 09 Apr 1962 UTC launched from the Air Force Western Test Range (AFWTR). Debris objects in space refer to the collection of defunct objects orbiting the Earth. Examples of debris include non-operational satellites, rocket bodies, and fragments generated from explosions, collisions, or faulty payload assembly.

Loading next visibility...
Identifier
274, 1962-010D
Orbit
LEO
Last TLE update
2 days ago
Origin
Manufacturer
Unknown
Mission
Spacecraft
Bus & Motor
Unknown
Mass
~10 kg wet, ~10 kg dry
Launch date (UTC)
1962-04-09 (63 years ago)
Launch vehicle
Unknown
Launch site
Air Force Western Test Range (AFWTR)
Object type
Payload
Rocket body
Debris
Shape & HBR
Unknown
Radar Cross Section
Medium (>0.1 m² and <1 m²)

Expand to show TLE details & history

TLE from 2 days ago
0 MIDAS 5 DEB
1 00274U 62010D   25128.16583035 -.00000063  00000-0 -13374-1 0  9991
2 00274  86.6697  32.1734 0352455 304.3542  52.4486  9.39389207162752
Epoch: 2025-05-08T03:58Z
Definitive object data (Epoch: 2025-05-08T03:58:47.742Z)
Latitude
0.00002°
Longitude
106.23424°
Altitude
2,915.918 km
Speed
6.617 km/s
True Right ascension
02h 08m 41s
True Declination
0° 00' 00"
Sunlit
Object was in daylight at TLE epoch
Visualization TLE readout
Latitude
54.02515°
Longitude
110.59599°
Altitude
3,231.163 km
Speed
6.407 km/s
Apparent Right ascension
06h 26m 10s
Apparent Declination
50° 59' 57"
Sunlit
Object is in daylight
Visualization observer readout
Local Sidereal Time
00:18:51
Azimuth
45.928° ENE
Elevation
28.897°
Doppler factor
1
Orbital elements
Apogee altitude
3,441.823 km
Perigee altitude
2,773.171 km
Semi-major axis
9,485.634 km
Eccentricity
0.0352455
Inclination
86.6697°
RAAN
32.1734°
Arg. of periapsis
304.3542°
True anomaly
55.73706°
Mean anomaly
52.4486°
Eccentric anomaly
54.08408°
Mean motion
2.34933 °/min
BSTAR
-0.013374
Orbital period
153.24 mins
Loading maneuver chart data...
Loading SW <> Apogee altitude chart data...
Loading historical data...
Loading historical data...
Loading historical data...
Loading historical data...
Loading historical data...
Loading historical data...
Loading historical data...

MIDAS 5 DEB Visibility forecast

Observer location: undefined°, undefined°

Span
Click to sort rows by Start time (UTC) header in descending order
Start Az.
Max El. time (UTC)
Max El. Az.
Max El.
End time (UTC)
End Az.
9 mins2025-05-09 16:08:25.966Z46.033° ENE2025-05-09 16:08:25.966Z46.033° ENE25.789°2025-05-09 16:17:25.966Z15.327° NNE
31 mins2025-05-09 18:21:25.966Z190.227° SSW2025-05-09 18:35:25.966Z265.954° W43.873°2025-05-09 18:52:25.966Z0.556° NNE
18 mins2025-05-09 21:06:25.966Z275.062° WNW2025-05-09 21:14:25.966Z307.402° NW16.857°2025-05-09 21:24:25.966Z344.669° N
25 mins2025-05-10 02:44:25.966Z13.832° NNE2025-05-10 02:56:25.966Z58.795° ENE21.466°2025-05-10 03:09:25.966Z107.573° ESE
34 mins2025-05-10 05:17:25.966Z358.376° N2025-05-10 05:33:25.966Z59.201° ENE44.833°2025-05-10 05:51:25.966Z178.744° S
25 mins2025-05-10 07:52:25.966Z341.333° N2025-05-10 08:04:25.966Z295.394° NW25.378°2025-05-10 08:17:25.966Z245.614° WSW
16 mins2025-05-10 14:59:25.966Z86.299° E2025-05-10 15:07:25.966Z54.437° ENE16.623°2025-05-10 15:15:25.966Z24.817° NE
|